Overview Statistics Trail Chart Weather Telemetry Raw packets
 

This is the latest recevied weather packets stored in our database for station/object I8ZSE-10. If no packets are shown the sender has not sent any weather packets the latest 10 day(s).

<< 33 34 35 36 37 38 39 >>
Time Temp. Humidity Pressure Rain* Wind** Luminosity Snow
1788147630 23.89° C 78% - 0 mm - - -
1788147030 23.89° C 77% - 0 mm - - -
1788146431 23.33° C 81% - 0 mm - - -
1788145530 23.33° C 83% - 0 mm - - -
1788144930 24.44° C 79% - 0 mm - - -
1788144330 23.89° C 81% - 0 mm - - -
1788143730 24.44° C 81% - 0 mm - - -
1788143130 24.44° C 78% - 0 mm - - -
1788142530 24.44° C 77% - 0 mm - - -
1788141930 24.44° C 76% - 0 mm - - -
1788141330 24.44° C 74% - 0 mm - - -
1788140730 24.44° C 78% - 0 mm - - -
1788140130 25° C 74% - 0 mm - - -
1788139530 24.44° C 75% - 0 mm - - -
1788138930 24.44° C 77% - 0 mm - - -
1788138330 23.89° C 77% - 0 mm - - -
1788137730 23.89° C 77% - 0 mm - - -
1788137130 24.44° C 76% - 0 mm - - -
1788136530 24.44° C 75% - 0 mm - - -
1788135930 25° C 74% - 0 mm - - -
1788135330 25.56° C 73% - 0 mm - - -
1788134730 24.44° C 80% - 0 mm - - -
1788134130 25° C 76% - 0 mm - - -
1788133530 23.89° C 82% - 0 mm - - -
1788132931 23.89° C 87% - 0 mm - - -

* Rain latest hour (hover to see other rain measurements)
** Current wind speed in m/s (hover to see current wind gust speed)